Weather in Wah

Pakistan     33°46′59″N   72°43′23″E
temp.,
°C
wind,
m/s
gust,
m/s
humid.,
%
clouds,
%
prec.,
mm/h
press.,
hPa
HPBL,
m
6 march, sat
sat623:00+15ne23430 0.0 101225
02:00+14ne234720 0.0 101135
05:00+12nne224529 0.0 101026
08:00+17nne223379 0.0 101280
11:00+22wsw222389 0.0 1014396
14:00+25nnw3521100 0.0 10112635
17:00+24n332768 0.0 1010468
20:00+17ne333583 0.0 101245
7 march, sun
sun723:00+15nne354067 0.0 1012103
02:00+15nw5850100 0.0 1010214
05:00+13nnw345886 0.0 1010100
08:00+15nnw455599 0.0 1012203
11:00+21nnw563983 0.0 1012550
14:00+26nw423053 0.0 1009850
17:00+25wnw443127 0.0 1007859
20:00+17nne33440 0.0 101028
8 march, mon
mon823:00+15ne23640 0.0 101030
02:00+13nne12650 0.0 101126
05:00+13nne23640 0.0 101131
08:00+16nnw34510 0.0 1014142
11:00+24nnw34300 0.0 1015644
14:00+27wnw24230 0.0 10132493
17:00+26wnw45280 0.0 1011501
20:00+18nne34400 0.0 101334
9 march, tue
tue923:00+16ne34430 0.0 101437
02:00+15ne23480 0.0 101332
05:00+13n23450 0.0 101326
08:00+17n22390 0.0 101487
11:00+25nw33250 0.0 1015526
14:00+29wnw23180 0.0 10131540
17:00+27w33221 0.0 1011152
20:00+19nne23292 0.0 101223
10 march, wed
wed1023:00+17ene333449 0.0 101231
02:00+15ne1239100 0.0 101126
05:00+16e2237100 0.0 101023
08:00+20ene234196 0.0 1012128
11:00+26wnw343171 0.2 10131577
14:00+27e4526100 0.0 10101117
17:00+24n3539100 0.0 1008147
20:00+16ne234892 0.0 101031